Torna al catalogo

STARLINK-33562

AttivoComunicazioniVLEO
NORAD 62102·PAYLOAD·🇺🇸 United States

Lanciato Nov 25, 2024 da Cape Canaveral Space Force Station

Loading…

Prossimi Passaggi (prossime 24 ore)

TLE

AggiornatoSource: CelesTrak SupGP

Epoca: Sep 14, 2026, 15:16 UTC

1 62102C 24220Q   26257.63659722 -.00024917  00000+0 -90277-3 0  2572
2 62102  43.0010 218.3693 0001235 265.2461 298.6701 15.27581147    15

Traccia STARLINK-33562 in tempo reale con AllMySat

Download on the App Store